Weather History for KACY - November, 2012

Change the Weather History Date:

Sunday, November 4, 2012

  Actual Average Record
Temperature  
Mean Temperature 41 °F 50 °F  
Max Temperature 50 °F 61 °F 80 °F (1974)
Min Temperature 31 °F 40 °F 22 °F (1879)
Degree Days  
Heating Degree Days 24 15  
Month to date heating degree days 81 57  
Since 1 July heating degree days 367 415  
Cooling Degree Days 0 0  
Month to date cooling degree days 0 0  
Year to date cooling degree days 1218 1054  
Moisture  
Dew Point 28 °F    
Average Humidity 61    
Maximum Humidity 75    
Minimum Humidity 46    
Precipitation  
Precipitation 0.00 in 0.11 in 1.80 in (1970)
Month to date precipitation T 0.45  
Year to date precipitation 40.11 35.24  
Snow  
Snow 0.00 in 0.00 in 0.00 in (1903)
Month to date snowfall 0.0 0.0  
Since 1 July snowfall 0.0 0.0  
Since 1 September snowfall 0.0 0.0  
Snow Depth 0.00 in    
Sea Level Pressure  
Sea Level Pressure 30.02 in    
Wind  
Wind Speed 8 mph (WNW)    
Max Wind Speed 17 mph    
Max Gust Speed 23 mph    
Visibility 10 miles    
Events      
T = Trace of Precipitation, MM = Missing Value Source: NWS Daily Summary

Daily Weather History Graph

Daily Weather History Graph

Search for Another Location

Airport or City:

Trip Planner

Search our weather history database for the weather conditions in past years. The results will help you decide how hot, cold, wet, or windy it might be!

Date:

Astronomy

Nov. 04, 2012 Rise Set
Actual Time 6:30 AM EST 4:52 PM EST
Civil Twilight 6:02 AM EST 5:20 PM EST
Nautical Twilight 5:30 AM EST 5:52 PM EST
Astronomical Twilight 4:58 AM EST 6:24 PM EST
Moon 9:28 PM EST (11/4) 11:12 AM EST (11/4)
Length of Visible Light 11h 18m
Length of Day
10h 22m
Waning Gibbous, 72% of the Moon is Illuminated
Nov 4
Waning Gibbous
Nov 6
Last Quarter
Nov 13
New
Nov 20
First Quarter
Nov 28
Full

Hourly Weather History & Observations

Time (EST) Temp. Windchill Dew Point Humidity Pressure Visibility Wind Dir Wind Speed Gust Speed Precip Events Conditions
12:54 AM 41.0 °F 35.2 °F 27.0 °F 57% 30.01 in 10.0 mi NW 9.2 mph - N/A   Clear
1:54 AM 39.0 °F 34.8 °F 27.0 °F 62% 30.02 in 10.0 mi West 5.8 mph - N/A   Clear
1:54 AM 37.9 °F 34.4 °F 27.0 °F 65% 30.03 in 10.0 mi West 4.6 mph - N/A   Clear
2:54 AM 36.0 °F - 27.0 °F 70% 30.02 in 10.0 mi North - - N/A   Clear
3:54 AM 34.0 °F - 27.0 °F 75% 30.02 in 10.0 mi Calm Calm - N/A   Clear
4:54 AM 34.0 °F 31.0 °F 26.1 °F 73% 30.02 in 10.0 mi WSW 3.5 mph - N/A   Clear
5:54 AM 34.0 °F 28.0 °F 27.0 °F 75% 30.02 in 10.0 mi WNW 6.9 mph - N/A   Clear
6:54 AM 34.0 °F 28.0 °F 27.0 °F 75% 30.04 in 10.0 mi West 6.9 mph - N/A   Clear
7:54 AM 39.0 °F 33.4 °F 28.0 °F 65% 30.06 in 10.0 mi WNW 8.1 mph - N/A   Clear
8:54 AM 43.0 °F 36.0 °F 28.0 °F 56% 30.05 in 10.0 mi NW 13.8 mph - N/A   Clear
9:54 AM 45.0 °F 38.9 °F 28.9 °F 53% 30.04 in 10.0 mi NW 12.7 mph - N/A   Clear
10:54 AM 46.9 °F - 28.9 °F 50% 30.02 in 10.0 mi NW 15.0 mph 19.6 mph N/A   Mostly Cloudy
11:54 AM 48.0 °F - 28.9 °F 48% 30.00 in 10.0 mi WNW 15.0 mph - N/A   Scattered Clouds
12:54 PM 46.9 °F - 28.9 °F 50% 29.99 in 10.0 mi West 13.8 mph 19.6 mph N/A   Mostly Cloudy
1:54 PM 48.0 °F - 28.9 °F 48% 29.99 in 10.0 mi NW 13.8 mph - N/A   Mostly Cloudy
2:54 PM 46.0 °F 40.6 °F 28.0 °F 50% 29.98 in 10.0 mi WNW 11.5 mph - N/A   Partly Cloudy
3:54 PM 46.9 °F - 28.9 °F 50% 29.99 in 10.0 mi WNW 11.5 mph - N/A   Partly Cloudy
4:54 PM 44.1 °F 39.0 °F 28.9 °F 55% 29.99 in 10.0 mi NW 9.2 mph - N/A   Overcast
5:54 PM 42.1 °F 38.4 °F 28.9 °F 60% 30.01 in 10.0 mi NNW 5.8 mph - N/A   Overcast
6:54 PM 41.0 °F 39.0 °F 28.9 °F 62% 30.02 in 10.0 mi NW 3.5 mph - N/A   Overcast
7:54 PM 42.1 °F 38.4 °F 28.9 °F 60% 30.02 in 10.0 mi WNW 5.8 mph - N/A   Overcast
8:54 PM 41.0 °F 38.0 °F 28.9 °F 62% 30.03 in 10.0 mi WSW 4.6 mph - N/A   Overcast
9:54 PM 41.0 °F 38.0 °F 30.0 °F 65% 30.03 in 10.0 mi West 4.6 mph - N/A   Overcast
10:54 PM 39.9 °F 36.7 °F 30.0 °F 68% 30.01 in 10.0 mi West 4.6 mph - N/A   Overcast